Overview Statistics Trail Chart Weather Telemetry Raw packets
 

This is the latest recevied weather packets stored in our database for station/object IZ8QAD-4. If no packets are shown the sender has not sent any weather packets the latest 10 day(s).

<< 1 2 3 4 5 6 7 >>
Time Temp. Humidity Pressure Rain* Wind** Luminosity Snow
1788489570 32.78° C 32% 971.5 hPa - - - -
1788487770 32.78° C 32% 971.3 hPa - - - -
1788485970 32.78° C 32% 971.4 hPa - - - -
1788484169 32.78° C 31% 971.2 hPa - - - -
1788482369 33.33° C 31% 971.2 hPa - - - -
1788480569 33.33° C 32% 971.4 hPa - - - -
1788478769 33.33° C 31% 971.4 hPa - - - -
1788476969 33.33° C 32% 971.2 hPa - - - -
1788475168 32.78° C 32% 971.2 hPa - - - -
1788473371 32.78° C 33% 971.2 hPa - - - -
1788471571 33.33° C 33% 971.2 hPa - - - -
1788469770 32.78° C 33% 971.1 hPa - - - -
1788467970 32.78° C 33% 970.9 hPa - - - -
1788466170 32.78° C 34% 970.8 hPa - - - -
1788464370 32.78° C 34% 970.8 hPa - - - -
1788462569 32.78° C 36% 970.7 hPa - - - -
1788460769 33.33° C 36% 970.2 hPa - - - -
1788458968 32.78° C 36% 969.5 hPa - - - -
1788457168 32.78° C 36% 969.2 hPa - - - -
1788455368 32.78° C 37% 969.2 hPa - - - -
1788453567 32.78° C 37% 969 hPa - - - -
1788451771 32.78° C 37% 969 hPa - - - -
1788449971 32.78° C 34% 968.9 hPa - - - -
1788448170 32.78° C 31% 968.5 hPa - - - -
1788446370 32.22° C 26% 968.3 hPa - - - -

* Rain since midnight (hover to see other rain measurements)
** Current wind speed in m/s (hover to see current wind gust speed)